Time,TemperatureF,DewpointF,PressureIn,WindDirection,WindDirectionDegrees,WindSpeedMPH,WindSpeedGustMPH,Humidity,HourlyPrecipIn,Conditions,Clouds,dailyrainin,SoftwareType,DateUTC
2013-06-14 00:01:00,52.2,51.8,29.58,NNE,19,0.0,0.9,99,0.11,,,0.67,meteobridge,2013-06-14 04:01:00,
2013-06-14 00:02:00,52.2,51.8,29.58,NNE,19,0.0,0.9,99,0.11,,,0.68,meteobridge,2013-06-14 04:02:00,
2013-06-14 00:04:00,52.2,51.8,29.58,NNE,19,0.0,0.0,99,0.11,,,0.68,meteobridge,2013-06-14 04:04:00,
2013-06-14 00:07:00,52.2,51.8,29.58,NNE,19,0.0,0.0,99,0.10,,,0.68,meteobridge,2013-06-14 04:07:00,
2013-06-14 00:10:00,52.2,51.8,29.58,NNE,19,0.9,0.9,99,0.10,,,0.69,meteobridge,2013-06-14 04:10:00,
2013-06-14 00:15:00,52.2,51.8,29.58,NE,55,0.0,0.9,99,0.09,,,0.69,meteobridge,2013-06-14 04:15:00,
2013-06-14 00:21:00,52.0,51.6,29.59,NE,55,0.0,0.9,99,0.09,,,0.70,meteobridge,2013-06-14 04:21:00,
2013-06-14 00:26:00,52.0,51.6,29.59,NE,55,0.0,0.0,99,0.09,,,0.71,meteobridge,2013-06-14 04:26:00,
2013-06-14 00:32:00,52.0,51.6,29.59,NE,55,0.0,0.9,99,0.08,,,0.71,meteobridge,2013-06-14 04:32:00,
2013-06-14 00:37:00,52.0,51.6,29.59,NNE,30,0.0,0.0,99,0.08,,,0.72,meteobridge,2013-06-14 04:37:00,
2013-06-14 00:42:00,52.0,51.6,29.59,NNE,30,0.0,0.9,99,0.08,,,0.73,meteobridge,2013-06-14 04:42:00,
2013-06-14 00:48:00,51.8,51.4,29.59,NNE,30,0.0,0.9,99,0.08,,,0.74,meteobridge,2013-06-14 04:48:00,
2013-06-14 00:53:00,51.8,51.4,29.59,NNE,30,0.0,0.0,99,0.08,,,0.75,meteobridge,2013-06-14 04:53:00,
2013-06-14 00:59:00,51.8,51.4,29.59,NE,34,0.0,0.0,99,0.09,,,0.76,meteobridge,2013-06-14 04:59:00,
2013-06-14 01:04:00,51.8,51.4,29.59,ENE,75,0.0,0.9,99,0.09,,,0.77,meteobridge,2013-06-14 05:04:00,
2013-06-14 01:09:00,51.8,51.4,29.60,East,92,0.9,0.9,99,0.09,,,0.78,meteobridge,2013-06-14 05:09:00,
2013-06-14 01:14:00,51.6,51.3,29.60,East,92,0.9,0.9,99,0.10,,,0.79,meteobridge,2013-06-14 05:14:00,
2013-06-14 01:20:00,51.6,51.3,29.60,East,92,0.0,0.0,99,0.10,,,0.80,meteobridge,2013-06-14 05:20:00,
2013-06-14 01:25:00,51.6,51.3,29.60,East,92,0.0,0.0,99,0.10,,,0.81,meteobridge,2013-06-14 05:25:00,
2013-06-14 01:31:00,51.6,51.3,29.60,East,92,0.0,0.0,99,0.11,,,0.82,meteobridge,2013-06-14 05:31:00,
2013-06-14 01:36:00,51.6,51.3,29.60,East,92,0.0,0.9,99,0.11,,,0.83,meteobridge,2013-06-14 05:36:00,
2013-06-14 01:42:00,51.6,51.3,29.61,East,92,0.0,0.0,99,0.11,,,0.84,meteobridge,2013-06-14 05:42:00,
2013-06-14 01:47:00,51.6,51.3,29.61,East,92,0.0,0.0,99,0.11,,,0.85,meteobridge,2013-06-14 05:47:00,
2013-06-14 01:52:00,51.6,51.3,29.61,East,98,0.0,0.9,99,0.11,,,0.86,meteobridge,2013-06-14 05:52:00,
2013-06-14 01:57:00,51.6,51.3,29.61,East,98,0.0,0.0,99,0.11,,,0.87,meteobridge,2013-06-14 05:57:00,
2013-06-14 02:02:00,51.6,51.3,29.62,North,5,0.0,0.9,99,0.11,,,0.88,meteobridge,2013-06-14 06:02:00,
2013-06-14 02:08:00,51.6,51.3,29.62,NNE,30,0.0,2.0,99,0.10,,,0.88,meteobridge,2013-06-14 06:08:00,
2013-06-14 02:14:00,51.6,51.3,29.62,SE,128,0.0,0.0,99,0.11,,,0.90,meteobridge,2013-06-14 06:14:00,
2013-06-14 02:19:00,51.4,51.1,29.62,SE,128,0.0,0.9,99,0.10,,,0.90,meteobridge,2013-06-14 06:19:00,
2013-06-14 02:24:00,51.4,51.1,29.62,East,94,0.0,0.9,99,0.11,,,0.92,meteobridge,2013-06-14 06:24:00,
2013-06-14 02:30:00,51.4,51.1,29.62,NE,49,0.0,2.0,99,0.10,,,0.92,meteobridge,2013-06-14 06:30:00,
2013-06-14 02:35:00,51.3,50.9,29.62,ENE,66,0.0,0.9,99,0.10,,,0.93,meteobridge,2013-06-14 06:35:00,
2013-06-14 02:40:00,51.3,50.9,29.62,East,92,0.0,0.9,99,0.10,,,0.94,meteobridge,2013-06-14 06:40:00,
2013-06-14 02:46:00,51.3,50.9,29.63,East,84,0.0,0.9,99,0.10,,,0.95,meteobridge,2013-06-14 06:46:00,
2013-06-14 02:51:00,51.3,50.9,29.63,East,84,0.0,0.9,99,0.10,,,0.96,meteobridge,2013-06-14 06:51:00,
2013-06-14 02:57:00,51.1,50.7,29.64,North,11,0.0,0.0,99,0.10,,,0.97,meteobridge,2013-06-14 06:57:00,
2013-06-14 03:02:00,51.1,50.7,29.64,NE,40,0.9,2.0,99,0.10,,,0.98,meteobridge,2013-06-14 07:02:00,
2013-06-14 03:07:00,51.1,50.7,29.64,ENE,61,0.0,0.9,99,0.10,,,0.99,meteobridge,2013-06-14 07:07:00,
2013-06-14 03:13:00,51.1,50.7,29.64,ENE,60,0.0,0.9,99,0.10,,,1.00,meteobridge,2013-06-14 07:13:00,
2013-06-14 03:18:00,51.1,50.7,29.64,ENE,60,0.0,0.0,99,0.09,,,1.00,meteobridge,2013-06-14 07:18:00,
2013-06-14 03:23:00,51.1,50.7,29.64,ENE,60,0.0,0.0,99,0.09,,,1.01,meteobridge,2013-06-14 07:23:00,
2013-06-14 03:28:00,51.1,50.7,29.64,ENE,60,0.0,0.0,99,0.10,,,1.02,meteobridge,2013-06-14 07:28:00,
2013-06-14 03:34:00,50.9,50.5,29.65,ENE,60,0.0,0.9,99,0.10,,,1.03,meteobridge,2013-06-14 07:34:00,
2013-06-14 03:39:00,50.9,50.5,29.65,ESE,116,0.0,0.9,99,0.10,,,1.04,meteobridge,2013-06-14 07:39:00,
2013-06-14 03:44:00,50.9,50.5,29.65,WSW,238,0.0,2.0,99,0.09,,,1.04,meteobridge,2013-06-14 07:44:00,
2013-06-14 03:50:00,50.7,50.4,29.65,SE,126,0.0,2.0,99,0.09,,,1.05,meteobridge,2013-06-14 07:50:00,
2013-06-14 03:55:00,50.7,50.4,29.65,North,355,0.0,2.0,99,0.09,,,1.06,meteobridge,2013-06-14 07:55:00,
2013-06-14 04:01:00,50.7,50.4,29.65,NNW,346,0.0,0.0,99,0.08,,,1.06,meteobridge,2013-06-14 08:01:00,
2013-06-14 04:06:00,50.7,50.4,29.65,NNE,31,0.9,2.0,99,0.08,,,1.07,meteobridge,2013-06-14 08:06:00,
2013-06-14 04:12:00,50.7,50.4,29.65,NE,40,0.0,2.9,99,0.08,,,1.08,meteobridge,2013-06-14 08:12:00,
2013-06-14 04:17:00,50.7,50.4,29.65,NNE,30,0.0,0.0,99,0.07,,,1.08,meteobridge,2013-06-14 08:17:00,
2013-06-14 04:23:00,50.7,50.4,29.65,NNE,30,0.0,0.0,99,0.08,,,1.09,meteobridge,2013-06-14 08:23:00,
2013-06-14 04:28:00,50.7,50.4,29.65,NNE,30,0.0,0.0,99,0.07,,,1.09,meteobridge,2013-06-14 08:28:00,
2013-06-14 04:34:00,50.7,50.4,29.65,NE,53,0.0,0.9,99,0.07,,,1.10,meteobridge,2013-06-14 08:34:00,
2013-06-14 04:39:00,50.5,50.2,29.65,NE,53,0.0,0.9,99,0.06,,,1.10,meteobridge,2013-06-14 08:39:00,
2013-06-14 04:44:00,50.5,50.2,29.65,ESE,105,0.0,0.0,99,0.06,,,1.11,meteobridge,2013-06-14 08:44:00,
2013-06-14 04:50:00,50.5,50.2,29.65,ESE,105,0.0,0.9,99,0.07,,,1.12,meteobridge,2013-06-14 08:50:00,
2013-06-14 04:55:00,50.5,50.2,29.65,ESE,120,0.0,0.0,99,0.06,,,1.12,meteobridge,2013-06-14 08:55:00,
2013-06-14 05:00:00,50.5,50.2,29.65,ESE,120,0.0,0.0,99,0.07,,,1.13,meteobridge,2013-06-14 09:00:00,
2013-06-14 05:05:00,50.5,50.2,29.65,ESE,120,0.9,0.9,99,0.06,,,1.13,meteobridge,2013-06-14 09:05:00,
2013-06-14 05:10:00,50.4,50.0,29.65,ESE,120,0.0,0.0,99,0.06,,,1.14,meteobridge,2013-06-14 09:10:00,
2013-06-14 05:16:00,50.4,50.0,29.65,ESE,120,0.0,0.0,99,0.06,,,1.14,meteobridge,2013-06-14 09:16:00,
2013-06-14 05:21:00,50.4,50.0,29.66,ESE,117,0.0,0.0,99,0.06,,,1.15,meteobridge,2013-06-14 09:21:00,
2013-06-14 05:26:00,50.4,50.0,29.67,ESE,117,0.0,0.0,99,0.06,,,1.15,meteobridge,2013-06-14 09:26:00,
2013-06-14 05:31:00,50.4,50.0,29.67,ESE,117,0.0,0.9,99,0.06,,,1.16,meteobridge,2013-06-14 09:31:00,
2013-06-14 05:37:00,50.5,50.2,29.68,NW,319,0.0,0.9,99,0.06,,,1.16,meteobridge,2013-06-14 09:37:00,
2013-06-14 05:42:00,50.5,50.2,29.69,NNW,344,0.9,2.0,99,0.06,,,1.17,meteobridge,2013-06-14 09:42:00,
2013-06-14 05:47:00,50.5,50.2,29.68,NNW,344,0.0,0.9,99,0.05,,,1.17,meteobridge,2013-06-14 09:47:00,
2013-06-14 05:53:00,50.5,50.2,29.69,NNW,344,0.0,0.0,99,0.06,,,1.18,meteobridge,2013-06-14 09:53:00,
2013-06-14 05:58:00,50.7,50.4,29.69,NNW,344,0.0,2.0,99,0.05,,,1.18,meteobridge,2013-06-14 09:58:00,
2013-06-14 06:03:00,50.7,50.4,29.69,NNW,344,0.0,0.9,99,0.06,,,1.19,meteobridge,2013-06-14 10:03:00,
2013-06-14 06:08:00,50.7,50.4,29.69,NNW,344,0.0,0.9,99,0.05,,,1.19,meteobridge,2013-06-14 10:08:00,
2013-06-14 06:13:00,50.7,50.4,29.69,NNW,344,0.0,0.9,99,0.05,,,1.19,meteobridge,2013-06-14 10:13:00,
2013-06-14 06:19:00,50.7,50.4,29.69,NNW,344,0.0,0.0,99,0.05,,,1.20,meteobridge,2013-06-14 10:19:00,
2013-06-14 06:24:00,50.7,50.4,29.69,NNW,344,0.0,0.0,99,0.05,,,1.20,meteobridge,2013-06-14 10:24:00,
2013-06-14 06:29:00,50.9,50.5,29.70,NNW,344,0.0,0.0,99,0.05,,,1.21,meteobridge,2013-06-14 10:29:00,
2013-06-14 06:34:00,51.1,50.7,29.70,NNW,344,0.0,0.0,99,0.05,,,1.21,meteobridge,2013-06-14 10:34:00,
2013-06-14 06:40:00,51.1,50.7,29.70,NNW,344,0.0,0.0,99,0.04,,,1.21,meteobridge,2013-06-14 10:40:00,
2013-06-14 06:45:00,51.1,50.7,29.70,NNW,344,0.0,0.9,99,0.05,,,1.22,meteobridge,2013-06-14 10:45:00,
2013-06-14 06:51:00,51.1,50.7,29.70,NNW,344,0.0,0.0,99,0.04,,,1.22,meteobridge,2013-06-14 10:51:00,
2013-06-14 06:56:00,51.3,50.9,29.71,NNW,344,0.0,0.0,99,0.04,,,1.22,meteobridge,2013-06-14 10:56:00,
2013-06-14 07:01:00,51.3,50.9,29.71,NNW,344,0.0,0.9,99,0.03,,,1.22,meteobridge,2013-06-14 11:01:00,
2013-06-14 07:07:00,51.3,50.9,29.71,East,83,0.0,2.0,99,0.04,,,1.23,meteobridge,2013-06-14 11:07:00,
2013-06-14 07:12:00,51.4,51.1,29.71,East,83,0.0,0.0,99,0.04,,,1.23,meteobridge,2013-06-14 11:12:00,
2013-06-14 07:18:00,51.4,51.1,29.70,East,83,0.0,0.0,99,0.03,,,1.23,meteobridge,2013-06-14 11:18:00,
2013-06-14 07:23:00,51.4,51.1,29.70,ENE,78,0.0,0.0,99,0.03,,,1.23,meteobridge,2013-06-14 11:23:00,
2013-06-14 07:28:00,51.4,51.1,29.71,ENE,78,0.0,0.0,99,0.02,,,1.23,meteobridge,2013-06-14 11:28:00,
2013-06-14 07:33:00,51.4,51.1,29.71,ENE,76,0.0,0.9,99,0.02,,,1.23,meteobridge,2013-06-14 11:33:00,
2013-06-14 07:38:00,51.4,51.1,29.71,South,188,0.0,0.9,99,0.02,,,1.23,meteobridge,2013-06-14 11:38:00,
2013-06-14 07:44:00,51.6,51.3,29.71,South,188,0.0,0.0,99,0.01,,,1.23,meteobridge,2013-06-14 11:44:00,
2013-06-14 07:49:00,51.6,51.3,29.71,South,188,0.0,0.0,99,0.01,,,1.23,meteobridge,2013-06-14 11:49:00,
2013-06-14 07:54:00,51.8,51.4,29.71,South,188,0.0,0.0,99,0.01,,,1.23,meteobridge,2013-06-14 11:54:00,
2013-06-14 08:00:00,52.0,51.6,29.71,South,188,0.0,0.0,99,0.01,,,1.23,meteobridge,2013-06-14 12:00:00,
2013-06-14 08:05:00,52.0,51.6,29.71,South,188,0.0,0.0,99,0.00,,,1.23,meteobridge,2013-06-14 12:05:00,
2013-06-14 08:10:00,52.2,51.8,29.71,South,188,0.0,0.9,99,0.00,,,1.23,meteobridge,2013-06-14 12:10:00,
2013-06-14 08:15:00,52.2,51.8,29.72,South,188,0.0,0.0,99,0.00,,,1.23,meteobridge,2013-06-14 12:15:00,
2013-06-14 08:21:00,52.2,51.8,29.72,South,188,0.0,0.0,99,0.00,,,1.23,meteobridge,2013-06-14 12:21:00,
2013-06-14 08:26:00,52.3,52.0,29.72,South,188,0.0,0.0,99,0.00,,,1.23,meteobridge,2013-06-14 12:26:00,
2013-06-14 08:31:00,52.3,52.0,29.72,South,188,0.0,0.0,99,0.00,,,1.23,meteobridge,2013-06-14 12:31:00,
2013-06-14 08:37:00,52.5,52.2,29.72,South,188,0.0,0.9,99,0.00,,,1.23,meteobridge,2013-06-14 12:37:00,
2013-06-14 08:42:00,52.5,52.2,29.72,South,188,0.0,0.0,99,0.00,,,1.23,meteobridge,2013-06-14 12:42:00,
2013-06-14 08:48:00,52.5,52.2,29.73,South,188,0.0,0.0,99,0.00,,,1.23,meteobridge,2013-06-14 12:48:00,
2013-06-14 08:53:00,52.9,52.5,29.73,South,188,0.0,0.0,99,0.00,,,1.23,meteobridge,2013-06-14 12:53:00,
2013-06-14 08:58:00,52.9,52.9,29.73,WSW,252,0.0,0.9,100,0.00,,,1.23,meteobridge,2013-06-14 12:58:00,
2013-06-14 09:03:00,53.1,52.7,29.73,SE,128,0.0,2.9,99,0.00,,,1.23,meteobridge,2013-06-14 13:03:00,
2013-06-14 09:09:00,53.1,52.7,29.73,SE,128,0.0,0.9,99,0.00,,,1.23,meteobridge,2013-06-14 13:09:00,
2013-06-14 09:14:00,53.1,52.7,29.73,WNW,296,0.0,0.0,99,0.00,,,1.23,meteobridge,2013-06-14 13:14:00,
2013-06-14 09:19:00,53.2,52.9,29.73,WNW,300,0.0,0.9,99,0.00,,,1.23,meteobridge,2013-06-14 13:19:00,
2013-06-14 09:24:00,53.2,52.9,29.73,WNW,300,0.0,0.9,99,0.00,,,1.23,meteobridge,2013-06-14 13:24:00,
2013-06-14 09:30:00,53.4,53.4,29.74,WNW,300,0.0,0.0,100,0.00,,,1.23,meteobridge,2013-06-14 13:30:00,
2013-06-14 09:35:00,53.4,53.4,29.74,WNW,300,0.0,0.9,100,0.00,,,1.23,meteobridge,2013-06-14 13:35:00,
2013-06-14 09:40:00,53.4,53.1,29.75,WNW,300,0.0,0.0,99,0.00,,,1.23,meteobridge,2013-06-14 13:40:00,
2013-06-14 09:45:00,53.6,53.2,29.75,NNW,327,0.0,0.9,99,0.00,,,1.23,meteobridge,2013-06-14 13:45:00,
2013-06-14 09:51:00,53.6,53.2,29.76,NNW,327,0.0,0.9,99,0.00,,,1.23,meteobridge,2013-06-14 13:51:00,
2013-06-14 09:56:00,53.4,53.1,29.76,North,355,0.0,0.9,99,0.00,,,1.23,meteobridge,2013-06-14 13:56:00,
2013-06-14 10:02:00,53.4,53.1,29.76,North,355,0.9,0.9,99,0.00,,,1.23,meteobridge,2013-06-14 14:02:00,
2013-06-14 10:07:00,53.4,53.1,29.77,North,355,0.0,0.0,99,0.00,,,1.23,meteobridge,2013-06-14 14:07:00,
2013-06-14 10:12:00,53.6,53.2,29.77,North,355,0.0,0.9,99,0.00,,,1.23,meteobridge,2013-06-14 14:12:00,
2013-06-14 10:18:00,53.8,53.4,29.77,North,355,0.0,0.0,99,0.00,,,1.23,meteobridge,2013-06-14 14:18:00,
2013-06-14 10:23:00,54.0,53.6,29.77,North,350,0.0,0.9,99,0.00,,,1.23,meteobridge,2013-06-14 14:23:00,
2013-06-14 10:29:00,54.1,53.8,29.78,NW,320,0.0,0.9,99,0.00,,,1.23,meteobridge,2013-06-14 14:29:00,
2013-06-14 10:34:00,54.3,54.0,29.78,NW,320,0.0,0.0,99,0.00,,,1.23,meteobridge,2013-06-14 14:34:00,
2013-06-14 10:39:00,54.7,54.3,29.78,NW,320,0.0,0.0,99,0.00,,,1.23,meteobridge,2013-06-14 14:39:00,
2013-06-14 10:45:00,54.7,54.3,29.78,NW,320,0.0,0.9,99,0.00,,,1.23,meteobridge,2013-06-14 14:45:00,
2013-06-14 10:51:00,54.9,54.5,29.78,NW,320,0.0,0.0,99,0.00,,,1.23,meteobridge,2013-06-14 14:51:00,
2013-06-14 10:56:00,55.0,54.7,29.79,NW,320,0.0,0.0,99,0.00,,,1.23,meteobridge,2013-06-14 14:56:00,
2013-06-14 11:01:00,55.2,54.9,29.79,SSE,164,0.0,2.0,99,0.00,,,1.23,meteobridge,2013-06-14 15:01:00,
2013-06-14 11:07:00,55.6,55.2,29.79,WNW,298,0.0,0.0,99,0.00,,,1.23,meteobridge,2013-06-14 15:07:00,
2013-06-14 11:12:00,55.9,55.6,29.79,WNW,298,0.0,0.0,99,0.00,,,1.23,meteobridge,2013-06-14 15:12:00,
2013-06-14 11:17:00,55.9,55.6,29.79,WNW,298,0.0,0.0,99,0.00,,,1.23,meteobridge,2013-06-14 15:17:00,
2013-06-14 11:22:00,56.5,56.1,29.79,SSW,203,0.0,0.9,99,0.00,,,1.23,meteobridge,2013-06-14 15:22:00,
2013-06-14 11:27:00,56.8,56.5,29.80,East,88,0.9,2.0,99,0.00,,,1.23,meteobridge,2013-06-14 15:27:00,
2013-06-14 11:33:00,57.0,56.7,29.80,SSW,198,0.0,0.0,99,0.00,,,1.23,meteobridge,2013-06-14 15:33:00,
2013-06-14 11:38:00,56.8,56.3,29.80,SSW,205,0.0,0.0,98,0.00,,,1.23,meteobridge,2013-06-14 15:38:00,
2013-06-14 11:43:00,56.8,56.3,29.79,SSW,205,0.0,0.9,98,0.00,,,1.23,meteobridge,2013-06-14 15:43:00,
2013-06-14 11:48:00,56.8,55.9,29.79,South,175,0.0,0.0,97,0.00,,,1.23,meteobridge,2013-06-14 15:48:00,
2013-06-14 11:54:00,56.8,55.9,29.80,ESE,114,0.0,0.9,97,0.00,,,1.23,meteobridge,2013-06-14 15:54:00,
2013-06-14 11:59:00,56.8,55.9,29.80,ESE,114,0.0,0.0,97,0.00,,,1.23,meteobridge,2013-06-14 15:59:00,
2013-06-14 12:05:00,57.0,55.9,29.80,NW,311,0.0,2.0,96,0.00,,,1.23,meteobridge,2013-06-14 16:05:00,
2013-06-14 12:10:00,57.2,56.3,29.79,WNW,303,0.0,0.9,97,0.00,,,1.23,meteobridge,2013-06-14 16:10:00,
2013-06-14 12:15:00,57.4,56.8,29.79,NW,311,0.0,0.9,98,0.00,,,1.23,meteobridge,2013-06-14 16:15:00,
2013-06-14 12:21:00,57.9,57.4,29.79,NNW,327,0.0,0.9,98,0.00,,,1.23,meteobridge,2013-06-14 16:21:00,
2013-06-14 12:26:00,58.5,57.9,29.80,NNW,327,0.0,0.9,98,0.00,,,1.23,meteobridge,2013-06-14 16:26:00,
2013-06-14 12:31:00,58.8,58.5,29.79,SSE,158,0.0,0.9,99,0.00,,,1.23,meteobridge,2013-06-14 16:31:00,
2013-06-14 12:36:00,59.4,58.8,29.79,ESE,109,0.0,0.9,98,0.00,,,1.23,meteobridge,2013-06-14 16:36:00,
2013-06-14 12:41:00,59.7,58.8,29.79,ESE,109,0.9,0.9,97,0.00,,,1.23,meteobridge,2013-06-14 16:41:00,
2013-06-14 12:46:00,60.3,59.2,29.79,WNW,294,0.0,2.9,96,0.00,,,1.23,meteobridge,2013-06-14 16:46:00,
2013-06-14 12:52:00,60.6,58.6,29.79,SE,136,0.0,2.0,93,0.00,,,1.23,meteobridge,2013-06-14 16:52:00,
2013-06-14 12:57:00,61.3,59.9,29.79,East,89,0.0,0.9,95,0.00,,,1.23,meteobridge,2013-06-14 16:57:00,
2013-06-14 13:03:00,61.9,59.9,29.79,SE,127,0.0,0.9,93,0.00,,,1.23,meteobridge,2013-06-14 17:03:00,
2013-06-14 13:08:00,62.4,60.6,29.79,WNW,303,2.0,2.9,94,0.00,,,1.23,meteobridge,2013-06-14 17:08:00,
2013-06-14 13:13:00,63.5,61.2,29.79,WNW,302,0.0,0.0,92,0.00,,,1.23,meteobridge,2013-06-14 17:13:00,
2013-06-14 13:18:00,64.0,60.8,29.79,WNW,298,0.0,2.0,89,0.00,,,1.23,meteobridge,2013-06-14 17:18:00,
2013-06-14 13:23:00,64.8,63.3,29.79,WNW,298,0.0,0.0,95,0.00,,,1.23,meteobridge,2013-06-14 17:23:00,
2013-06-14 13:28:00,65.1,60.1,29.79,West,263,0.9,2.0,84,0.00,,,1.23,meteobridge,2013-06-14 17:28:00,
2013-06-14 13:34:00,65.5,59.2,29.79,West,260,0.9,2.0,80,0.00,,,1.23,meteobridge,2013-06-14 17:34:00,
2013-06-14 13:39:00,65.3,60.1,29.79,SSW,207,0.0,2.0,83,0.00,,,1.23,meteobridge,2013-06-14 17:39:00,
2013-06-14 13:44:00,65.1,59.9,29.79,SSW,207,0.0,2.9,83,0.00,,,1.23,meteobridge,2013-06-14 17:44:00,
2013-06-14 13:49:00,64.9,59.0,29.79,WNW,294,0.9,2.0,81,0.00,,,1.23,meteobridge,2013-06-14 17:49:00,
2013-06-14 13:55:00,65.3,58.6,29.79,WNW,298,0.9,2.0,79,0.00,,,1.23,meteobridge,2013-06-14 17:55:00,
2013-06-14 14:00:00,65.8,60.8,29.78,NNW,344,0.0,0.9,84,0.00,,,1.23,meteobridge,2013-06-14 18:00:00,
2013-06-14 14:05:00,66.4,59.0,29.78,NW,317,0.0,0.9,77,0.00,,,1.23,meteobridge,2013-06-14 18:05:00,
2013-06-14 14:11:00,66.7,60.8,29.78,SW,217,0.0,0.0,81,0.00,,,1.23,meteobridge,2013-06-14 18:11:00,
2013-06-14 14:16:00,67.1,59.4,29.78,WSW,253,2.0,2.0,76,0.00,,,1.23,meteobridge,2013-06-14 18:16:00,
2013-06-14 14:21:00,67.6,61.0,29.78,WSW,240,0.9,0.9,79,0.00,,,1.23,meteobridge,2013-06-14 18:21:00,
2013-06-14 14:26:00,67.8,60.6,29.78,WNW,299,0.0,0.0,78,0.00,,,1.23,meteobridge,2013-06-14 18:26:00,
2013-06-14 14:32:00,67.5,60.8,29.78,SW,223,0.0,2.0,79,0.00,,,1.23,meteobridge,2013-06-14 18:32:00,
2013-06-14 14:37:00,66.9,59.5,29.78,SW,223,0.0,0.0,77,0.00,,,1.23,meteobridge,2013-06-14 18:37:00,
2013-06-14 14:43:00,66.7,59.0,29.78,SW,223,0.0,0.0,76,0.00,,,1.23,meteobridge,2013-06-14 18:43:00,
2013-06-14 14:48:00,67.3,58.6,29.78,SW,218,2.0,2.9,74,0.00,,,1.23,meteobridge,2013-06-14 18:48:00,
2013-06-14 14:54:00,67.5,60.8,29.78,SW,218,0.0,0.0,79,0.00,,,1.23,meteobridge,2013-06-14 18:54:00,
2013-06-14 14:59:00,67.5,60.4,29.78,SSW,207,0.0,2.0,78,0.00,,,1.23,meteobridge,2013-06-14 18:59:00,
2013-06-14 15:04:00,67.6,60.3,29.78,SSW,209,0.9,2.9,77,0.00,,,1.23,meteobridge,2013-06-14 19:04:00,
2013-06-14 15:09:00,68.5,60.3,29.78,NW,306,0.9,2.0,75,0.00,,,1.23,meteobridge,2013-06-14 19:09:00,
2013-06-14 15:14:00,68.7,59.4,29.78,SSW,209,0.9,2.9,72,0.00,,,1.23,meteobridge,2013-06-14 19:14:00,
2013-06-14 15:20:00,69.1,59.7,29.78,SSW,199,2.9,4.0,72,0.00,,,1.23,meteobridge,2013-06-14 19:20:00,
2013-06-14 15:25:00,69.3,59.5,29.78,SSW,198,0.9,4.0,71,0.00,,,1.23,meteobridge,2013-06-14 19:25:00,
2013-06-14 15:30:00,69.6,59.0,29.77,SSW,193,0.9,2.9,69,0.00,,,1.23,meteobridge,2013-06-14 19:30:00,
2013-06-14 15:35:00,70.0,60.1,29.77,WSW,250,0.9,2.0,71,0.00,,,1.23,meteobridge,2013-06-14 19:35:00,
2013-06-14 15:40:00,70.3,59.7,29.77,WSW,256,0.0,0.9,69,0.00,,,1.23,meteobridge,2013-06-14 19:40:00,
2013-06-14 15:46:00,70.5,59.9,29.77,SSW,200,0.0,0.9,69,0.00,,,1.23,meteobridge,2013-06-14 19:46:00,
2013-06-14 15:52:00,70.5,59.4,29.78,SSW,200,0.0,0.0,68,0.00,,,1.23,meteobridge,2013-06-14 19:52:00,
2013-06-14 15:57:00,70.3,59.4,29.78,SSW,200,0.0,0.0,68,0.00,,,1.23,meteobridge,2013-06-14 19:57:00,
2013-06-14 16:03:00,70.3,60.4,29.77,SSW,200,0.0,0.0,71,0.00,,,1.23,meteobridge,2013-06-14 20:03:00,
2013-06-14 16:08:00,70.3,59.7,29.77,SSW,200,0.0,0.9,69,0.00,,,1.23,meteobridge,2013-06-14 20:08:00,
2013-06-14 16:13:00,70.2,61.2,29.77,SSW,200,0.0,0.0,73,0.00,,,1.23,meteobridge,2013-06-14 20:13:00,
2013-06-14 16:18:00,70.0,59.7,29.77,SSW,200,0.0,0.0,70,0.00,,,1.23,meteobridge,2013-06-14 20:18:00,
2013-06-14 16:24:00,69.6,62.1,29.77,SSW,200,0.0,0.0,77,0.00,,,1.23,meteobridge,2013-06-14 20:24:00,
2013-06-14 16:29:00,69.3,59.0,29.77,SSW,200,0.0,0.0,70,0.00,,,1.23,meteobridge,2013-06-14 20:29:00,
2013-06-14 16:34:00,69.1,59.7,29.78,SSW,200,0.0,0.0,72,0.00,,,1.23,meteobridge,2013-06-14 20:34:00,
2013-06-14 16:39:00,68.7,60.1,29.78,SSW,200,0.0,0.0,74,0.00,,,1.23,meteobridge,2013-06-14 20:39:00,
2013-06-14 16:45:00,68.4,60.1,29.78,SSW,200,0.0,0.0,75,0.00,,,1.23,meteobridge,2013-06-14 20:45:00,
2013-06-14 16:50:00,68.2,60.3,29.79,SSW,200,0.0,0.0,76,0.00,,,1.23,meteobridge,2013-06-14 20:50:00,
2013-06-14 16:55:00,67.8,61.7,29.79,SSW,200,0.0,0.0,81,0.00,,,1.23,meteobridge,2013-06-14 20:55:00,
2013-06-14 17:01:00,67.5,61.2,29.79,SSW,200,0.0,0.0,80,0.00,,,1.23,meteobridge,2013-06-14 21:01:00,
2013-06-14 17:06:00,67.1,61.3,29.79,SSW,200,0.0,0.0,82,0.01,,,1.24,meteobridge,2013-06-14 21:06:00,
2013-06-14 17:12:00,66.6,61.2,29.79,SSW,200,0.0,0.0,83,0.01,,,1.24,meteobridge,2013-06-14 21:12:00,
2013-06-14 17:17:00,66.2,60.8,29.79,SSW,200,0.0,0.0,83,0.01,,,1.24,meteobridge,2013-06-14 21:17:00,
2013-06-14 17:22:00,66.0,61.7,29.79,SSW,200,0.0,0.0,86,0.01,,,1.24,meteobridge,2013-06-14 21:22:00,
2013-06-14 17:27:00,65.8,62.2,29.80,SSW,200,0.0,0.0,88,0.01,,,1.24,meteobridge,2013-06-14 21:27:00,
2013-06-14 17:33:00,65.7,62.6,29.79,SSW,200,0.0,0.9,90,0.01,,,1.24,meteobridge,2013-06-14 21:33:00,
2013-06-14 17:38:00,65.5,62.2,29.80,SSW,200,0.0,2.0,89,0.01,,,1.24,meteobridge,2013-06-14 21:38:00,
2013-06-14 17:43:00,65.7,61.7,29.80,SSW,200,0.9,2.0,87,0.01,,,1.24,meteobridge,2013-06-14 21:43:00,
2013-06-14 17:48:00,65.7,61.7,29.79,SSW,200,0.9,0.9,87,0.01,,,1.24,meteobridge,2013-06-14 21:48:00,
2013-06-14 17:54:00,65.8,60.3,29.79,SSW,200,0.0,0.9,82,0.01,,,1.24,meteobridge,2013-06-14 21:54:00,
2013-06-14 17:59:00,65.8,59.5,29.80,SSW,200,0.9,0.9,80,0.01,,,1.24,meteobridge,2013-06-14 21:59:00,
2013-06-14 18:05:00,65.8,59.5,29.80,SSW,200,0.0,2.0,80,0.00,,,1.24,meteobridge,2013-06-14 22:05:00,
2013-06-14 18:10:00,66.0,59.7,29.80,SSW,200,0.0,0.9,80,0.00,,,1.24,meteobridge,2013-06-14 22:10:00,
2013-06-14 18:15:00,66.2,60.3,29.80,SSW,200,0.9,0.9,81,0.00,,,1.24,meteobridge,2013-06-14 22:15:00,
2013-06-14 18:21:00,66.4,60.4,29.80,SSW,200,0.0,0.9,81,0.00,,,1.24,meteobridge,2013-06-14 22:21:00,
2013-06-14 18:26:00,66.7,59.4,29.80,West,277,0.0,2.0,77,0.00,,,1.24,meteobridge,2013-06-14 22:26:00,
2013-06-14 18:31:00,66.9,59.2,29.80,SW,222,0.0,0.9,76,0.00,,,1.24,meteobridge,2013-06-14 22:31:00,
2013-06-14 18:36:00,66.9,59.9,29.81,SSW,197,0.0,0.0,78,0.00,,,1.24,meteobridge,2013-06-14 22:36:00,
2013-06-14 18:42:00,66.9,59.5,29.81,SW,225,0.0,0.9,77,0.00,,,1.24,meteobridge,2013-06-14 22:42:00,
2013-06-14 18:47:00,67.3,59.9,29.81,WSW,240,0.0,0.9,77,0.00,,,1.24,meteobridge,2013-06-14 22:47:00,
2013-06-14 18:52:00,67.3,59.5,29.81,NW,306,0.0,2.9,76,0.00,,,1.24,meteobridge,2013-06-14 22:52:00,
2013-06-14 18:58:00,66.9,59.2,29.81,WNW,286,0.0,0.9,76,0.00,,,1.24,meteobridge,2013-06-14 22:58:00,
2013-06-14 19:03:00,66.9,60.3,29.81,West,279,0.0,0.9,79,0.00,,,1.24,meteobridge,2013-06-14 23:03:00,
2013-06-14 19:08:00,66.7,59.7,29.81,West,262,0.0,2.9,78,0.00,,,1.24,meteobridge,2013-06-14 23:08:00,
2013-06-14 19:14:00,66.4,59.4,29.81,NW,315,0.9,4.0,78,0.00,,,1.24,meteobridge,2013-06-14 23:14:00,
2013-06-14 19:19:00,66.0,59.0,29.81,West,268,0.0,2.9,78,0.00,,,1.24,meteobridge,2013-06-14 23:19:00,
2013-06-14 19:25:00,65.8,59.2,29.82,West,269,0.0,0.9,79,0.00,,,1.24,meteobridge,2013-06-14 23:25:00,
2013-06-14 19:30:00,65.5,59.5,29.81,SSW,196,0.0,2.0,81,0.00,,,1.24,meteobridge,2013-06-14 23:30:00,
2013-06-14 19:36:00,65.1,59.5,29.82,SSW,196,0.0,0.0,82,0.00,,,1.24,meteobridge,2013-06-14 23:36:00,
2013-06-14 19:41:00,64.8,59.2,29.82,SSW,196,0.0,0.9,82,0.00,,,1.24,meteobridge,2013-06-14 23:41:00,
2013-06-14 19:46:00,64.6,59.4,29.82,SSW,196,0.0,0.0,83,0.00,,,1.24,meteobridge,2013-06-14 23:46:00,
2013-06-14 19:52:00,64.0,58.8,29.83,SSW,196,0.0,0.0,83,0.00,,,1.24,meteobridge,2013-06-14 23:52:00,
2013-06-14 19:58:00,63.9,58.6,29.83,SSW,196,0.0,0.0,83,0.00,,,1.24,meteobridge,2013-06-14 23:58:00,
2013-06-14 20:04:00,63.5,58.3,29.83,SSW,196,0.0,0.0,83,0.00,,,0.00,meteobridge,2013-06-15 00:04:00,
2013-06-14 20:09:00,63.1,58.3,29.83,SSW,196,0.0,0.9,84,0.00,,,0.00,meteobridge,2013-06-15 00:09:00,
2013-06-14 20:15:00,63.0,58.5,29.83,SSW,196,0.0,0.0,85,0.00,,,0.00,meteobridge,2013-06-15 00:15:00,
2013-06-14 20:21:00,62.8,58.5,29.83,SSW,196,0.0,0.0,86,0.00,,,0.00,meteobridge,2013-06-15 00:21:00,
2013-06-14 20:26:00,62.6,58.3,29.84,SSW,196,0.0,0.0,86,0.00,,,0.00,meteobridge,2013-06-15 00:26:00,
2013-06-14 20:31:00,62.2,58.3,29.84,SSW,196,0.0,0.0,87,0.00,,,0.00,meteobridge,2013-06-15 00:31:00,
2013-06-14 20:37:00,62.1,58.5,29.84,SSW,196,0.0,0.0,88,0.00,,,0.00,meteobridge,2013-06-15 00:37:00,
2013-06-14 20:42:00,61.9,58.3,29.84,SSW,196,0.0,0.9,88,0.00,,,0.00,meteobridge,2013-06-15 00:42:00,
2013-06-14 20:47:00,61.5,58.3,29.84,SSW,196,0.0,0.0,89,0.00,,,0.00,meteobridge,2013-06-15 00:47:00,
2013-06-14 20:52:00,61.2,57.9,29.84,SSW,196,0.9,0.9,89,0.00,,,0.00,meteobridge,2013-06-15 00:52:00,
2013-06-14 20:58:00,60.6,57.7,29.84,SSW,196,0.0,0.0,90,0.00,,,0.00,meteobridge,2013-06-15 00:58:00,
2013-06-14 21:04:00,60.3,57.6,29.85,SSW,196,0.0,0.9,91,0.00,,,0.00,meteobridge,2013-06-15 01:04:00,
2013-06-14 21:09:00,60.1,57.4,29.85,SSW,196,0.0,0.0,91,0.00,,,0.00,meteobridge,2013-06-15 01:09:00,
2013-06-14 21:14:00,59.7,57.4,29.84,SSW,196,0.0,0.0,92,0.00,,,0.00,meteobridge,2013-06-15 01:14:00,
2013-06-14 21:20:00,59.4,57.0,29.84,SSW,196,0.0,0.0,92,0.00,,,0.00,meteobridge,2013-06-15 01:20:00,
2013-06-14 21:25:00,59.2,57.2,29.85,SSW,196,0.0,0.0,93,0.00,,,0.00,meteobridge,2013-06-15 01:25:00,
2013-06-14 21:31:00,58.8,56.8,29.85,SSW,196,0.0,0.0,93,0.00,,,0.00,meteobridge,2013-06-15 01:31:00,
2013-06-14 21:37:00,58.6,56.7,29.85,SSW,196,0.0,0.0,93,0.00,,,0.00,meteobridge,2013-06-15 01:37:00,
2013-06-14 21:42:00,58.5,56.5,29.85,SSW,196,0.0,0.0,93,0.00,,,0.00,meteobridge,2013-06-15 01:42:00,
2013-06-14 21:47:00,58.3,56.3,29.85,SSW,196,0.0,0.9,93,0.00,,,0.00,meteobridge,2013-06-15 01:47:00,
2013-06-14 21:52:00,58.3,56.5,29.86,SSW,196,0.0,0.0,94,0.00,,,0.00,meteobridge,2013-06-15 01:52:00,
2013-06-14 21:58:00,58.1,56.3,29.86,SSW,196,0.0,0.0,94,0.00,,,0.00,meteobridge,2013-06-15 01:58:00,
2013-06-14 22:03:00,58.1,56.3,29.85,SSW,196,0.0,0.0,94,0.00,,,0.00,meteobridge,2013-06-15 02:03:00,
2013-06-14 22:08:00,58.1,56.3,29.86,SSW,196,0.0,0.9,94,0.00,,,0.00,meteobridge,2013-06-15 02:08:00,
2013-06-14 22:13:00,58.1,56.3,29.86,SSW,196,0.0,0.0,94,0.00,,,0.00,meteobridge,2013-06-15 02:13:00,
2013-06-14 22:19:00,58.1,56.3,29.86,SSW,196,0.0,0.0,94,0.00,,,0.00,meteobridge,2013-06-15 02:19:00,
2013-06-14 22:24:00,57.9,56.1,29.86,SSW,196,0.0,0.0,94,0.00,,,0.00,meteobridge,2013-06-15 02:24:00,
2013-06-14 22:29:00,57.9,56.1,29.86,SSW,196,0.0,0.0,94,0.00,,,0.00,meteobridge,2013-06-15 02:29:00,
2013-06-14 22:34:00,57.9,55.9,29.86,SSW,196,0.0,0.0,93,0.00,,,0.00,meteobridge,2013-06-15 02:34:00,
2013-06-14 22:40:00,57.7,55.8,29.86,SSW,196,0.0,0.0,93,0.00,,,0.00,meteobridge,2013-06-15 02:40:00,
2013-06-14 22:45:00,57.7,55.8,29.86,SSW,196,0.0,0.0,93,0.00,,,0.00,meteobridge,2013-06-15 02:45:00,
2013-06-14 22:50:00,57.6,55.6,29.86,SSW,196,0.0,0.0,93,0.00,,,0.00,meteobridge,2013-06-15 02:50:00,
2013-06-14 22:56:00,57.6,55.6,29.86,SSW,196,0.0,0.0,93,0.00,,,0.00,meteobridge,2013-06-15 02:56:00,
2013-06-14 23:01:00,57.4,55.6,29.86,SSW,196,0.0,0.0,94,0.00,,,0.00,meteobridge,2013-06-15 03:01:00,
2013-06-14 23:06:00,57.4,55.6,29.86,SSW,196,0.0,0.0,94,0.00,,,0.00,meteobridge,2013-06-15 03:06:00,
2013-06-14 23:11:00,57.4,55.6,29.86,SSW,196,0.0,0.0,94,0.00,,,0.00,meteobridge,2013-06-15 03:11:00,
2013-06-14 23:17:00,57.4,55.6,29.87,SSW,196,0.0,0.0,94,0.00,,,0.00,meteobridge,2013-06-15 03:17:00,
2013-06-14 23:22:00,57.4,55.6,29.87,SSW,196,0.0,0.0,94,0.00,,,0.00,meteobridge,2013-06-15 03:22:00,
2013-06-14 23:27:00,57.2,55.4,29.87,SSW,196,0.0,0.0,94,0.00,,,0.00,meteobridge,2013-06-15 03:27:00,
2013-06-14 23:32:00,57.0,55.2,29.87,SSW,196,0.0,0.0,94,0.00,,,0.00,meteobridge,2013-06-15 03:32:00,
2013-06-14 23:38:00,57.0,55.2,29.87,SSW,196,0.0,0.0,94,0.00,,,0.00,meteobridge,2013-06-15 03:38:00,
2013-06-14 23:43:00,56.8,55.2,29.87,SSW,196,0.0,0.0,94,0.00,,,0.00,meteobridge,2013-06-15 03:43:00,
2013-06-14 23:49:00,56.8,55.2,29.88,SSW,196,0.0,0.0,94,0.00,,,0.00,meteobridge,2013-06-15 03:49:00,
2013-06-14 23:54:00,56.8,55.2,29.88,SSW,196,0.0,0.0,94,0.00,,,0.00,meteobridge,2013-06-15 03:54:00,